Change the Weather History Date:

Friday, January 17, 2014

  Actual Average Record
Temperature  
Mean Temperature 27 °F 28 °F  
Max Temperature 39 °F 34 °F 60 °F (1952)
Min Temperature 14 °F 21 °F -17 °F (1977)
Degree Days  
Heating Degree Days 38 37  
Month to date heating degree days 662 628  
Since 1 July heating degree days 2826 2735  
Cooling Degree Days 0 0  
Month to date cooling degree days 0 0  
Year to date cooling degree days 0 0  
Moisture  
Dew Point 22 °F    
Average Humidity 70    
Maximum Humidity 81    
Minimum Humidity 59    
Precipitation  
Precipitation 0.13 in 0.09 in 1.74 in (1952)
Month to date precipitation 1.48 1.59  
Year to date precipitation 1.48 1.59  
Snow  
Snow 1.30 in 0.60 in - ()
Month to date snowfall 12.8 10.1  
Since 1 July snowfall 35.0 28.7  
Snow Depth 1.00 in    
Sea Level Pressure  
Sea Level Pressure 29.83 in    
Wind  
Wind Speed 12 mph (SSW)    
Max Wind Speed 29 mph    
Max Gust Speed 34 mph    
Visibility 7 miles    
Events Fog , Snow    
T = Trace of Precipitation, MM = Missing Value Source: NWS Daily Summary

Daily Weather History Graph

Daily Weather History Graph

Search for Another Location

Airport or City:

Trip Planner

Search our weather history database for the weather conditions in past years. The results will help you decide how hot, cold, wet, or windy it might be!

Date:

Astronomy

Jan. 17, 2014 Rise Set
Actual Time 7:50 AM EST 5:25 PM EST
Civil Twilight 7:19 AM EST 5:55 PM EST
Nautical Twilight 6:45 AM EST 6:29 PM EST
Astronomical Twilight 6:12 AM EST 7:02 PM EST
Moon 7:12 PM EST (1/17) 8:15 AM EST (1/17)
Length of Visible Light 10h 35m
Length of Day
9h 34m
Full, 98% of the Moon is Illuminated
Jan 17
Full
Jan 24
Last Quarter
Jan 30
New
Feb 6
First Quarter
Feb 14
Full

Hourly Weather History & Observations

Time (EST) Temp. Windchill Dew Point Humidity Pressure Visibility Wind Dir Wind Speed Gust Speed Precip Events Conditions
12:03 AM 30.0 °F 20.5 °F 23.0 °F 75% 29.73 in 10.0 mi South 11.5 mph - N/A   Overcast
12:30 AM 30.9 °F 21.2 °F 23.0 °F 72% 29.73 in 10.0 mi South 12.7 mph 19.6 mph N/A   Overcast
12:51 AM 30.9 °F 21.7 °F 24.1 °F 76% 29.75 in 8.0 mi South 11.5 mph - 0.00 in Snow Light Snow
1:51 AM 32.0 °F 23.0 °F 24.1 °F 73% 29.75 in 9.0 mi South 11.5 mph - 0.00 in Snow Light Snow
2:51 AM 32.0 °F 22.5 °F 25.0 °F 75% 29.75 in 10.0 mi SSW 12.7 mph - 0.00 in   Overcast
3:42 AM 32.0 °F 22.1 °F 21.9 °F 66% 29.72 in 10.0 mi SSW 13.8 mph - N/A   Overcast
3:51 AM 32.0 °F 21.6 °F 21.0 °F 64% 29.75 in 10.0 mi SSW 15.0 mph 26.5 mph N/A   Mostly Cloudy
4:51 AM 30.9 °F 19.4 °F 19.9 °F 64% 29.77 in 10.0 mi SSW 17.3 mph 28.8 mph N/A   Scattered Clouds
5:51 AM 30.9 °F 20.7 °F 19.9 °F 64% 29.79 in 10.0 mi SSW 13.8 mph 21.9 mph N/A   Mostly Cloudy
6:51 AM 30.0 °F 21.7 °F 19.0 °F 64% 29.81 in 10.0 mi SSW 9.2 mph - N/A   Mostly Cloudy
8:51 AM 30.9 °F 24.3 °F 21.9 °F 69% 29.83 in 10.0 mi South 6.9 mph - N/A   Overcast
9:51 AM 34.0 °F 25.5 °F 25.0 °F 70% 29.84 in 10.0 mi South 11.5 mph - N/A   Scattered Clouds
10:51 AM 36.0 °F 28.5 °F 27.0 °F 70% 29.84 in 10.0 mi SSW 10.4 mph - N/A   Mostly Cloudy
11:19 AM 36.0 °F 28.0 °F 28.0 °F 73% 29.81 in 10.0 mi South 11.5 mph - N/A   Mostly Cloudy
11:51 AM 37.9 °F 30.0 °F 28.0 °F 68% 29.83 in 10.0 mi South 12.7 mph - N/A   Mostly Cloudy
12:15 PM 37.0 °F 29.8 °F 27.0 °F 67% 29.79 in 10.0 mi SSW 10.4 mph - N/A   Scattered Clouds
12:32 PM 37.0 °F 29.8 °F 27.0 °F 67% 29.79 in 10.0 mi SW 10.4 mph - N/A   Mostly Cloudy
12:51 PM 37.0 °F 29.8 °F 27.0 °F 67% 29.81 in 10.0 mi South 10.4 mph - N/A   Overcast
1:51 PM 37.9 °F 32.1 °F 27.0 °F 65% 29.78 in 10.0 mi South 8.1 mph - N/A   Overcast
2:28 PM 39.0 °F 33.4 °F 27.0 °F 62% 29.75 in 10.0 mi South 8.1 mph - N/A   Mostly Cloudy
2:51 PM 39.0 °F 35.7 °F 27.0 °F 62% 29.77 in 10.0 mi SE 4.6 mph - N/A   Overcast
3:12 PM 37.0 °F 31.6 °F 27.0 °F 67% 29.75 in 3.0 mi SE 6.9 mph - 0.00 in Snow Light Snow
3:27 PM 35.1 °F 28.6 °F 28.9 °F 78% 29.76 in 0.5 mi SSE 8.1 mph - 0.01 in Snow Snow
3:51 PM 34.0 °F 29.8 °F 30.9 °F 89% 29.79 in 0.2 mi SSE 4.6 mph - 0.04 in Fog , Snow Snow
4:05 PM 34.0 °F 29.8 °F 30.9 °F 89% 29.76 in 1.0 mi SE 4.6 mph - 0.02 in Snow Light Snow
4:26 PM 35.1 °F 29.3 °F 30.9 °F 85% 29.77 in 2.0 mi SSE 6.9 mph - 0.03 in Snow Light Snow
4:41 PM 35.1 °F 29.3 °F 30.9 °F 85% 29.77 in 7.0 mi South 6.9 mph - 0.03 in Snow Light Snow
4:51 PM 35.1 °F 30.1 °F 30.9 °F 85% 29.79 in 8.0 mi South 5.8 mph - 0.03 in   Overcast
5:38 PM 30.0 °F 18.3 °F 24.1 °F 79% 29.80 in 6.0 mi SSW 17.3 mph 25.3 mph 0.00 in Snow Light Snow
5:43 PM 30.0 °F 17.5 °F 25.0 °F 82% 29.81 in 1.8 mi SW 19.6 mph 27.6 mph 0.00 in Snow Light Snow
5:51 PM 30.9 °F 19.1 °F 26.1 °F 82% 29.85 in 0.8 mi WSW 18.4 mph 27.6 mph 0.00 in Snow Light Snow
6:09 PM 28.0 °F 13.9 °F 23.0 °F 81% 29.84 in 3.0 mi West 23.0 mph 33.4 mph 0.01 in Snow Light Snow
6:28 PM 28.0 °F 14.3 °F 21.9 °F 78% 29.85 in 8.0 mi WSW 21.9 mph 29.9 mph 0.01 in Snow Light Snow
6:36 PM 27.0 °F 14.3 °F 21.9 °F 81% 29.85 in 7.0 mi West 17.3 mph 26.5 mph 0.01 in Snow Light Snow
6:47 PM 26.6 °F 13.4 °F 21.2 °F 80% 29.86 in 6.0 mi WSW 18.4 mph 24.2 mph 0.01 in Snow Light Snow
6:51 PM 27.0 °F 14.3 °F 21.0 °F 78% 29.89 in 5.0 mi West 17.3 mph 23.0 mph 0.01 in Snow Light Snow
7:47 PM 23.0 °F 8.3 °F 17.6 °F 80% 29.91 in 1.8 mi WSW 19.6 mph 26.5 mph 0.00 in Snow Light Snow
7:51 PM 23.0 °F 7.2 °F 18.0 °F 81% 29.94 in 1.5 mi WSW 23.0 mph 27.6 mph 0.00 in Snow Light Snow
8:07 PM 21.0 °F 5.7 °F 16.0 °F 81% 29.92 in 2.5 mi WSW 19.6 mph 28.8 mph 0.00 in Snow Light Snow
8:23 PM 19.9 °F 4.3 °F 14.0 °F 78% 29.92 in 3.0 mi SW 19.6 mph - 0.00 in Snow Light Snow
8:41 PM 19.0 °F 2.7 °F 12.9 °F 77% 29.93 in 1.8 mi WSW 20.7 mph 28.8 mph 0.00 in Snow Light Snow
8:48 PM 19.4 °F 2.1 °F 12.2 °F 74% 29.94 in 3.0 mi WSW 24.2 mph 31.1 mph 0.00 in Snow Light Snow
8:51 PM 18.0 °F 0.9 °F 10.9 °F 74% 29.97 in 4.0 mi WSW 21.9 mph 31.1 mph 0.00 in Snow Light Snow
9:21 PM 18.0 °F 5.4 °F 10.9 °F 74% 29.95 in 5.0 mi SW 11.5 mph 23.0 mph 0.00 in Snow Light Snow
9:34 PM 17.1 °F 1.5 °F 10.0 °F 74% 29.96 in 2.0 mi SW 17.3 mph - 0.00 in Snow Light Snow
9:51 PM 16.0 °F -0.9 °F 9.0 °F 74% 29.99 in 3.0 mi WSW 19.6 mph 31.1 mph 0.00 in Snow Light Snow
10:51 PM 16.0 °F -0.9 °F 7.0 °F 68% 30.00 in 9.0 mi SW 19.6 mph 25.3 mph 0.00 in Snow Light Snow
11:51 PM 15.1 °F 0.5 °F 5.0 °F 64% 30.01 in 10.0 mi SW 13.8 mph - 0.00 in   Overcast